Kezdőlap
METAR-TAF:

METAR-TAF

Repülőterek :

Independence Municipal Airport

Independence, Iowa, Amerikai Egyesült Államok

földrajzi szélesség: 42-27N, földrajzi hosszúság: 091-56W, magasság: 298 m

Jelenlegi meteorológiai megfigyelések

A jelentés 9 perccel ezelõtt készült, 01:55 UTC
Déli szél 16 kt
Hőmérséklet -9°C
Páratartalom 67%
Légköri nyomás 1019 hPa
Látótávolság: 16.1 km
Derült ég

METAR: KIIB 270155Z AUTO 18016KT 10SM CLR M09/M14 A3010 RMK AO2 T10931140

Idő: 20:04 (02:04 UTC)


TAF: hiányzik

Meteorológiai megfigyelések és előrejelzések több, mint 4000 repülőtéren (METAR és TAF jelentéseket).

A térképen piros és sárga pontok jelzik az elérhető meteorológiai állomásokat.

Mozgassa az egeret a pont fölött, hogy megjelenjen az állomás neve.

Azután kattintson az időjárási megfigyelések és előrejelzések megtekintéséhez.

A térkép megváltoztatása: kattintson a fekete keresztel jelölt zöld gombra ráközelítéshez, a vonallal jelölt zöld gombra távolításhoz, vagy a zöld nyilakra a szomszédos térképek eléréséhez.


METAR-TAF: